Weather in Ust-Serta

Russia / Kemerovo Oblast     56°00′18″N   87°59′34″E
temp.,
°C
wind,
m/s
gust,
m/s
humid.,
%
clouds,
%
prec.,
mm/h
press.,
hPa
HPBL,
m
14 may, fri
fri1401:00+11wsw346317 0.1 101272
04:00+8wnw3686100 0.0 1013139
07:00+10nw4781100 0.2 1015408
10:00+12nw575216 0.1 10151187
13:00+10nw8966100 0.2 10171193
16:00+14nw79335 0.0 10172047
19:00+12nw6734100 0.0 10191616
22:00+9w2343100 0.0 102143
15 may, sat
sat1501:00+7wsw375489 0.0 1021138
04:00+9sw5114694 0.0 1020346
07:00+11sw81645100 0.0 1019628
10:00+13wsw10164687 0.0 1018829
13:00+17sw9144164 0.0 10171382
16:00+20wsw10134296 0.0 10161674
19:00+18sw9135499 0.0 10141089
22:00+15wsw71563100 0.8 1015830
16 may, sun
sun1601:00+13wsw51375100 2.6 1014396
04:00+10sw3690100 0.0 1015164
07:00+12sw477695 0.0 1014249
10:00+18sw7105886 0.3 1011916
13:00+22wsw9134993 0.4 10081738
16:00+18nnw71173100 2.1 1008890
19:00+12n578199 3.1 1011653
22:00+8ne4685100 0.0 1014533
17 may, mon
mon1701:00+8ne4484100 0.0 1015331
04:00+6ne238489 0.0 1015236
07:00+7nne337975 0.0 1017291
10:00+11ne225567 0.0 1016854
13:00+14n3349100 0.0 10161304
16:00+14nw4451100 0.0 10161445
19:00+13nnw346096 0.0 1015465
22:00+9e117638 0.0 101410
18 may, tue
tue1801:00+10ese2280100 0.9 101274
04:00+10s41193100 10.3 1008517
07:00+13sw71483100 11.3 1005676
10:00+16wsw8147880 1.0 10031163
13:00+18wnw8127488 2.9 10021383
16:00+15nnw6879100 1.1 1005821
19:00+11nne568554 1.1 1006468
22:00+9ene3485100 0.1 1007510